SCP
0 0 0 0 0 0 0 0 0 0 0 0 0 0 0 0 0 0 0 0 0 0 0 0 0 0 0 0 0 0 0 0 0 0 0 0 0 0 0 0 0 0 0 0 0 0 0
0 0 0 0 0 0 0 0 0 0 0 0 0 0 0 0 0 0 0 0 0 0 0 0 0 0 0 0 0 0 0 0 0 0 0 0 0 0 -0 0 -0 -0 -0 -0 -0 0 -0
0 0 0 0 0 0 0 0 0 0 0 0 0 0 0 0 0 0 0 0 0 0 0 0 0 0 0 0 0 0 0 0 0 0 0 0 0 -0 -0 -0 -0 -0 -0 -0 0 0 0
0 0 0 0 0 0 0 0 0 0 0 0 0 0 0 0 0 0 0 0 0 0 0 0 0 0 0 0 0 0 0 0 0 0 0 0 0 -0 -0 -0 -0 -0 -0 0 0 0 -0
0 0 0 0 0 0 0 0 0 0 0 0 0 0 0 0 0 0 0 0 0 0 0 0 0 0 0 0 0 0 0 0 0 0 0 0 0 0 -0 -0 -0 -0 0 -0 -0 -0 0
0 0 0 0 0 0 0 0 0 0 0 0 0 0 0 0 0 0 0 0 0 0 0 0 0 0 0 0 -0 0 0 0 0 0 0 0 0 0 0 0 -0 0 -0 -0 -0 0 0
0 0 0 0 0 0 0 0 0 0 0 0 -0 0 0 0 0 0 0 0 0 0 0 0 0 0 0 -0 -0 0 0 0 0 0 0 0 0 0 0 -0 -0 0 0 -0 -0 -0 0
0 0 0 0 0 0 0 0 0 0 -0 0 0 -0 -0 -0 0 0 0 0 0 0 0 0 0 0 0 0 0 0 0 0 0 0 0 0 0 0 -0 0 -0 0 0 0 0 0 0
0 0 0 0 0 0 0 0 0 0 0 0 -0 -0 -0 -0 -0 -0 0 0 0 0 0 0 0 0 -0 0 0 0 0 0 0 0 0 0 0 0 -0 0 0 0 -0 -0 0 0 -0
0 0 0 0 0 0 0 0 0 0 0 0 0 0 -0 0 -0 -0 0 0 0 0 0 0 -0 0 0 0 0 0 0 0 0 0 0 0 0 0 0 0 0 0 -0 -0 0 0 -0
0 0 0 0 0 0 0 0 0 0 0 0 0 -0 0 0 -0 0 0 0 0 0 0 0 -0 0 0 0 0 0 0 0 0 0 0 -0 0 -0 0 0 -0 0 -0 0 0 -0 -0
0 0 0 0 0 0 0 0 0 0 0 0 0 0 0 0 0 0 0 0 0 0 0 0 0 0 0 0 0 0 0 0 0 0 0 -0 -0 -0 0 -0 0 0 -0 0 0 0 -0
0 0 0 0 0 0 0 0 0 0 0 0 0 0 0 0 0 0 0 0 0 0 0 0 0 0 0 0 0 0 0 0 0 0 -0 0 -0 0 0 -0 0 -0 0 0 0 -0 -0
0 0 0 0 0 0 0 0 0 0 0 0 0 0 0 0 0 0 0 0 0 0 0 0 0 0 0 0 0 -0 0 0 0 0 0 0 0 -0 -0 0 -0 0 0 0 0 0 -0
0 0 0 0 0 0 0 0 0 0 0 0 0 0 0 0 0 0 0 0 0 0 0 0 0 0 0 0 0 0 0 0 0 0 0 0 -0 0 0 0 -0 0 0 0 -0 0 0
0 0 0 0 0 0 0 0 0 0 0 0 0 0 0 0 -0 0 0 0 0 0 0 0 0 0 0 0 0 0 0 0 0 0 0 0 0 -0 -0 0 0 -0 0 0 -0 0 0
0 0 0 0 0 0 0 0 0 0 0 0 0 0 0 0 0 0 0 0 0 0 0 0 0 0 0 0 0 0 0 0 0 0 0 -0 0 0 0 0 0 0 -0 0 0 0 0
-0 0 0 0 0 0 0 0 0 0 0 0 0 0 0 0 0 0 0 0 0 0 0 0 0 0 0 0 0 0 0 0 0 0 0 -0 0 0 0 0 0 0 0 0 0 0 0
0 0 0 0 0 0 0 0 0 0 0 0 0 0 0 0 0 0 0 0 0 0 0 0 0 0 0 0 0 0 0 0 0 0 0 0 0 0 0 0 0 0 0 0 0 0 0
0 0 0 0 0 0 0 0 0 0 0 0 0 0 0 0 0 0 0 0 0 0 0 0 0 0 0 0 0 0 0 0 0 0 0 0 0 0 0 0 0 0 0 0 0 0 0
0 0 0 0 -0 0 0 0 0 0 0 0 0 0 0 0 0 0 0 0 0 0 0 -0 0 0 0 0 0 0 0 -0 0 0 0 0 0 0 0 0 0 0 0 0 0 0 0
0 0 0 0 0 0 0 0 0 0 0 0 0 0 0 0 -0 -0 0 0 0 -0 0 0 0 0 0 0 0 0 0 0 0 0 0 1 0 0 0 0 0 0 0 0 -0 0 0
0 0 0 0 0 0 0 0 0 0 0 0 0 0 0 0 -0 -0 0 0 0 0 0 0 0 0 0 0 0 0 0 0 0 0 0 1 0 0 0 0 0 0 0 0 0 0 0
0 0 0 0 0 0 0 0 0 0 0 0 0 0 0 0 0 -0 -0 0 -0 0 0 0 0 0 0 0 -0 0 0 0 0 0 0 1 0 0 0 0 0 0 0 0 0 0 0
0 0 0 0 0 0 0 0 0 0 0 0 0 0 0 -0 -0 -0 -0 0 0 -0 0 0 0 0 -0 0 -0 0 0 0 0 0 0 0 0 0 1 0 0 0 0 0 0 0 0
0 0 0 0 0 0 0 0 0 0 0 0 0 0 0 0 0 -0 -0 -0 0 -0 -0 -0 0 0 0 0 -0 0 0 0 0 0 0 0 1 1 1 0 0 0 0 0 0 0 0
0 0 0 0 0 -0 0 0 0 0 0 0 0 0 0 0 -0 -0 0 0 0 0 -0 -0 -0 0 0 0 -0 -0 0 0 0 0 0 0 0 0 0 1 0 0 0 0 0 0 0
0 0 0 0 0 0 0 0 0 0 -0 0 0 0 0 0 -0 -0 -0 0 -0 0 -0 -0 0 0 0 0 0 -0 0 0 0 0 0 0 0 1 1 1 0 0 0 0 1 1 0
0 0 0 0 0 0 0 0 0 0 0 0 0 0 0 0 0 -0 0 -0 -0 -0 -0 -0 0 0 0 0 0 0 -0 -0 0 0 0 0 0 0 1 1 0 0 0 1 1 0 0
Wind_Speed_500mb
23 25 27 31 36 40 44 47 48 46 47 47 48 48 47 47 49 50 51 54 57 56 54 50 43 40 35 28 48 33 43 35 16 46 56 60 72 68 53 54 57 54 51 63 47 37 58
31 31 33 33 33 33 36 39 41 48 51 46 46 48 49 49 47 50 52 50 49 51 51 49 46 42 37 46 53 43 45 41 22 33 52 57 66 66 65 56 54 57 59 51 45 65 62
32 33 36 39 40 39 41 44 42 41 42 47 50 50 47 47 50 45 46 50 48 45 43 42 45 44 42 69 30 23 31 50 31 33 40 52 57 63 59 53 63 59 50 46 47 49 46
40 38 36 35 34 34 34 38 43 46 46 43 48 48 46 45 45 49 41 45 45 44 41 36 39 37 38 37 57 65 41 37 45 52 43 33 44 62 64 54 55 45 51 42 45 44 58
36 37 39 41 40 39 40 39 38 40 41 44 43 41 43 50 49 50 50 45 36 37 38 33 34 36 43 23 51 73 59 56 40 38 34 44 46 51 50 41 40 40 36 50 47 44 46
34 34 35 35 37 41 44 47 45 43 42 40 40 39 40 44 49 54 55 46 21 34 30 22 31 23 48 52 56 51 64 61 61 42 44 47 48 35 36 33 43 40 46 43 44 45 41
36 37 37 37 40 42 42 45 46 49 47 42 42 38 38 41 44 41 45 30 15 13 40 42 33 48 20 9 35 52 43 60 59 55 41 49 30 43 49 52 52 49 46 47 44 32 18
40 40 40 39 42 45 47 48 46 45 46 48 46 43 38 36 40 41 36 22 25 22 27 65 79 70 61 41 27 38 41 57 63 53 45 41 49 53 52 47 55 53 50 46 40 36 29
45 46 45 43 44 45 47 47 48 50 47 44 44 44 36 35 41 40 36 50 43 33 24 55 74 86 82 67 62 48 60 63 52 55 53 53 50 53 54 49 51 50 48 41 44 34 32
52 51 50 51 48 48 50 53 53 51 50 48 44 40 35 29 27 21 33 25 22 16 15 31 56 69 86 72 73 74 63 63 46 58 59 60 52 56 55 53 51 48 50 48 34 29 24
53 52 52 52 48 48 51 54 55 56 54 47 42 39 31 28 25 16 19 11 4 11 14 17 76 26 67 86 23 85 84 75 55 53 46 64 57 60 55 55 53 45 45 37 26 29 28
57 54 53 53 51 51 55 57 59 54 49 45 41 38 33 30 33 33 23 15 8 14 28 18 23 53 50 68 79 29 96 81 71 50 55 59 60 58 61 50 50 47 41 22 24 24 24
60 55 54 54 54 52 57 58 56 54 54 46 39 36 37 28 36 18 17 23 15 27 18 24 46 52 52 54 64 63 63 61 52 52 56 51 65 60 59 58 45 46 23 22 20 22 22
60 57 53 54 53 52 57 57 54 56 54 42 38 36 39 37 30 26 21 15 31 41 69 26 37 48 53 49 56 67 53 53 60 62 29 45 45 66 54 58 49 43 33 22 22 21 31
60 54 52 54 51 52 56 57 53 53 48 35 33 35 38 36 29 32 21 22 42 53 35 63 61 54 49 52 45 61 67 59 63 63 48 44 58 47 64 47 44 38 43 35 34 31 23
58 52 51 54 53 57 59 56 51 49 42 32 26 23 38 30 32 32 14 30 45 58 73 67 53 33 45 47 55 62 62 60 63 65 51 49 35 55 59 50 44 44 38 32 24 30 25
55 55 49 54 52 56 55 51 47 45 38 29 21 11 36 35 37 22 13 34 52 70 72 53 58 56 52 50 45 58 64 61 65 65 62 53 34 41 47 53 45 37 36 33 27 27 22
56 51 51 55 54 56 52 47 48 39 25 17 12 6 4 38 18 5 19 36 48 54 78 58 50 53 53 49 43 43 60 64 56 60 68 64 22 31 53 53 51 46 46 34 20 29 21
53 52 52 55 53 53 55 45 46 30 11 7 10 23 6 33 9 17 29 43 52 51 54 53 47 43 50 50 24 31 48 60 73 64 59 53 42 25 38 44 46 45 47 39 26 18 28
57 53 54 54 50 57 54 38 41 24 6 13 12 7 13 22 19 20 32 41 41 49 51 48 38 51 42 46 39 33 42 30 59 59 76 45 38 45 33 40 44 53 48 45 38 26 28
54 52 53 54 53 53 50 38 37 28 12 9 11 11 7 9 15 18 26 41 42 30 49 36 40 44 44 39 44 32 35 39 49 52 50 43 53 42 47 47 54 50 50 52 49 38 36
50 53 52 51 57 56 41 41 32 26 15 17 13 10 22 32 26 27 20 28 42 37 40 34 34 39 37 44 35 40 46 40 23 40 40 40 41 41 49 53 52 56 53 51 50 46 44
49 53 53 55 54 50 43 38 28 29 23 17 19 22 18 19 23 19 23 21 15 27 31 35 33 36 34 39 43 49 60 54 51 43 45 35 33 43 38 46 46 49 52 51 42 42 44
48 52 55 58 55 52 42 39 32 28 27 33 27 18 9 16 19 7 28 14 32 34 30 34 36 39 39 48 34 61 65 58 51 47 38 25 44 33 30 34 51 26 41 44 41 36 38
49 53 56 60 57 47 45 37 33 32 25 14 25 12 8 11 29 32 18 25 25 29 32 36 43 51 18 27 19 24 28 32 41 40 37 36 33 22 31 31 26 47 40 45 41 36 36
50 55 57 60 59 49 46 40 32 34 23 15 17 25 18 12 10 40 33 30 19 27 33 46 43 43 9 18 4 6 8 12 16 16 33 31 29 25 26 32 41 30 44 31 29 29 31
56 55 57 58 59 52 45 40 34 27 20 15 17 16 16 14 34 27 22 20 24 21 15 36 30 24 25 15 4 6 9 18 15 37 30 28 31 33 26 17 26 39 28 43 33 16 27
58 58 59 61 58 50 42 37 28 24 21 19 24 21 16 14 51 37 30 24 27 26 6 26 19 21 13 17 11 10 9 11 15 30 20 28 30 24 30 25 22 27 37 40 13 18 16
60 61 62 61 57 49 39 33 28 25 23 29 28 30 19 26 45 54 44 35 38 28 10 14 20 19 18 9 14 8 12 6 18 12 21 12 5 18 15 23 7 16 20 26 27 21 18
Wind_Direction_500mb
328 322 321 311 305 296 291 291 292 294 296 301 296 287 281 280 275 272 271 271 272 273 275 277 279 280 277 246 242 252 292 293 272 215 216 219 227 224 236 236 241 252 256 257 272 281 265
324 320 320 321 320 322 316 305 295 289 290 290 293 296 297 295 284 277 271 269 268 268 270 273 275 274 272 254 250 256 255 262 247 225 217 217 234 232 241 245 252 254 258 264 263 254 259
344 335 325 318 314 313 313 314 318 309 301 298 291 287 291 296 297 288 279 273 268 268 266 265 265 267 259 244 235 241 255 231 231 214 218 224 227 243 245 247 255 261 263 266 255 254 257
10 9 5 1 359 350 337 322 315 310 311 309 298 294 286 290 294 294 286 278 272 268 264 263 260 255 254 251 256 239 236 243 236 231 234 234 233 244 255 264 258 254 260 257 259 252 251
358 356 353 350 349 349 347 345 343 336 318 309 308 302 287 283 285 290 293 281 275 268 262 257 252 238 262 267 234 242 229 229 226 218 230 237 237 235 239 249 257 248 252 253 258 247 251
348 346 344 342 341 337 334 332 331 331 334 326 313 308 310 292 287 286 289 294 266 267 258 250 238 227 251 238 235 233 225 224 227 231 237 239 228 238 222 225 234 235 240 238 252 259 260
347 345 342 340 335 334 336 334 329 324 323 324 324 305 302 307 297 289 291 319 263 235 215 209 207 205 226 255 227 223 215 216 221 228 223 224 221 225 224 223 237 244 251 246 253 258 220
345 341 335 328 325 326 326 324 327 325 318 318 317 320 305 299 305 290 277 252 232 331 287 238 242 237 243 253 244 218 206 204 207 220 215 215 221 224 231 226 231 243 252 261 273 283 286
343 342 339 333 328 322 322 321 319 317 318 314 309 310 309 301 307 291 263 251 264 300 275 261 237 237 232 234 236 226 209 206 207 211 214 218 222 222 233 223 229 234 243 254 261 273 270
338 338 337 336 331 330 328 325 321 314 308 307 307 303 307 297 306 306 280 279 253 264 275 252 217 241 225 224 238 222 211 207 213 211 215 226 225 222 225 229 220 232 232 239 254 274 270
337 335 335 333 330 328 326 325 321 319 316 304 302 299 295 268 270 285 351 40 188 210 263 233 213 212 201 197 181 211 211 202 210 210 211 225 219 230 220 221 231 233 239 242 236 247 259
334 333 332 331 327 324 327 326 323 320 316 309 295 289 286 268 271 271 286 305 241 225 235 241 218 185 190 200 215 212 199 214 213 221 223 229 229 227 233 228 220 233 237 247 257 260 249
331 330 329 330 328 324 325 325 324 321 315 307 287 281 268 262 253 267 263 262 210 226 235 248 172 175 195 194 207 226 190 202 205 210 226 217 227 231 232 229 215 224 213 224 225 237 252
333 331 331 332 330 328 326 326 324 322 320 304 285 271 264 252 250 255 261 239 225 231 240 286 205 182 200 208 203 213 186 203 208 208 210 219 219 222 216 229 218 198 208 219 226 223 245
333 330 332 334 332 329 328 326 325 324 324 308 290 275 260 242 230 239 235 226 226 244 267 242 281 283 203 214 210 203 219 201 203 207 214 208 227 208 228 208 218 194 212 215 250 251 284
335 334 332 334 333 332 331 327 325 324 322 311 295 275 259 241 208 218 219 238 252 245 262 289 291 311 305 219 222 194 203 217 209 205 219 235 215 225 208 210 204 219 192 208 232 244 266
343 338 337 337 336 338 335 332 327 324 317 297 285 279 293 216 205 200 218 218 239 255 272 278 273 299 304 301 278 209 209 220 203 207 210 226 243 210 207 204 192 205 222 199 225 225 226
341 340 339 337 338 342 338 336 334 326 320 286 244 253 273 179 177 251 241 243 266 274 281 290 290 280 291 304 309 296 214 215 207 208 200 214 225 238 209 199 197 206 216 192 214 219 253
345 343 338 338 341 338 340 328 336 329 321 297 267 273 249 193 215 233 251 256 259 265 272 267 277 275 283 308 308 286 266 209 217 193 208 202 224 227 224 205 184 212 218 215 210 223 213
348 346 345 343 342 345 342 329 340 332 313 291 292 288 203 208 243 276 269 272 281 284 273 261 277 279 286 282 278 279 292 283 204 217 202 188 220 222 219 197 178 195 216 215 212 216 225
353 352 350 348 346 344 344 340 332 340 305 270 257 269 303 284 275 276 310 274 275 280 291 235 259 272 264 275 285 292 351 338 315 218 190 186 211 218 229 229 193 197 207 221 216 212 222
358 355 353 353 353 349 350 346 338 336 301 247 284 311 320 297 291 276 244 267 267 264 268 294 292 244 258 270 281 312 321 325 294 335 195 188 208 222 211 231 212 205 205 216 224 213 214
357 358 354 354 352 355 352 350 343 339 316 241 260 277 294 291 291 293 265 280 283 303 283 251 265 277 297 289 288 290 310 293 287 288 296 186 192 204 223 217 236 207 202 206 219 224 209
360 359 358 355 351 349 348 351 345 336 329 254 256 305 257 286 300 234 278 234 269 278 292 298 287 279 276 338 309 287 279 279 277 264 259 276 191 196 217 219 227 230 194 212 218 223 221
359 0 356 355 356 359 355 351 350 348 341 264 266 262 289 294 309 306 2 292 282 281 264 277 284 268 278 290 292 313 286 256 252 245 254 262 180 196 212 219 227 215 217 198 208 213 212
359 355 354 355 357 352 350 349 348 347 338 313 290 283 274 291 294 320 316 331 321 308 303 289 274 259 245 272 54 280 297 292 218 219 235 251 177 213 190 221 224 213 208 215 205 224 202
357 354 353 353 354 352 354 349 350 349 344 316 302 302 286 271 285 318 317 305 314 316 288 278 328 221 231 255 127 248 276 292 293 212 208 229 187 211 230 233 207 223 199 187 209 235 201
357 354 351 349 350 349 349 355 355 2 354 340 322 294 279 273 290 287 292 300 284 300 300 312 314 244 225 227 207 192 246 342 303 302 315 243 181 209 221 228 221 221 220 212 151 242 244
351 350 349 350 350 350 343 343 340 344 344 339 329 336 308 270 277 291 286 274 278 259 262 312 335 339 11 292 219 246 248 106 343 312 244 281 56 255 225 213 233 291 241 141 163 228 229
Wind_Speed_850mb
23 25 27 31 36 40 44 47 48 46 47 47 48 48 47 47 49 50 51 54 57 56 54 50 43 40 35 28 48 33 43 35 16 46 56 60 72 68 53 54 57 54 51 63 47 37 58
31 31 33 33 33 33 36 39 41 48 51 46 46 48 49 49 47 50 52 50 49 51 51 49 46 42 37 46 53 43 45 41 22 33 52 57 66 66 65 56 54 57 59 51 45 65 62
32 33 36 39 40 39 41 44 42 41 42 47 50 50 47 47 50 45 46 50 48 45 43 42 45 44 42 69 30 23 31 50 31 33 40 52 57 63 59 53 63 59 50 46 47 49 46
40 38 36 35 34 34 34 38 43 46 46 43 48 48 46 45 45 49 41 45 45 44 41 36 39 37 38 37 57 65 41 37 45 52 43 33 44 62 64 54 55 45 51 42 45 44 58
36 37 39 41 40 39 40 39 38 40 41 44 43 41 43 50 49 50 50 45 36 37 38 33 34 36 43 23 51 73 59 56 40 38 34 44 46 51 50 41 40 40 36 50 47 44 46
34 34 35 35 37 41 44 47 45 43 42 40 40 39 40 44 49 54 55 46 21 34 30 22 31 23 48 52 56 51 64 61 61 42 44 47 48 35 36 33 43 40 46 43 44 45 41
36 37 37 37 40 42 42 45 46 49 47 42 42 38 38 41 44 41 45 30 15 13 40 42 33 48 20 9 35 52 43 60 59 55 41 49 30 43 49 52 52 49 46 47 44 32 18
40 40 40 39 42 45 47 48 46 45 46 48 46 43 38 36 40 41 36 22 25 22 27 65 79 70 61 41 27 38 41 57 63 53 45 41 49 53 52 47 55 53 50 46 40 36 29
45 46 45 43 44 45 47 47 48 50 47 44 44 44 36 35 41 40 36 50 43 33 24 55 74 86 82 67 62 48 60 63 52 55 53 53 50 53 54 49 51 50 48 41 44 34 32
52 51 50 51 48 48 50 53 53 51 50 48 44 40 35 29 27 21 33 25 22 16 15 31 56 69 86 72 73 74 63 63 46 58 59 60 52 56 55 53 51 48 50 48 34 29 24
53 52 52 52 48 48 51 54 55 56 54 47 42 39 31 28 25 16 19 11 4 11 14 17 76 26 67 86 23 85 84 75 55 53 46 64 57 60 55 55 53 45 45 37 26 29 28
57 54 53 53 51 51 55 57 59 54 49 45 41 38 33 30 33 33 23 15 8 14 28 18 23 53 50 68 79 29 96 81 71 50 55 59 60 58 61 50 50 47 41 22 24 24 24
60 55 54 54 54 52 57 58 56 54 54 46 39 36 37 28 36 18 17 23 15 27 18 24 46 52 52 54 64 63 63 61 52 52 56 51 65 60 59 58 45 46 23 22 20 22 22
60 57 53 54 53 52 57 57 54 56 54 42 38 36 39 37 30 26 21 15 31 41 69 26 37 48 53 49 56 67 53 53 60 62 29 45 45 66 54 58 49 43 33 22 22 21 31
60 54 52 54 51 52 56 57 53 53 48 35 33 35 38 36 29 32 21 22 42 53 35 63 61 54 49 52 45 61 67 59 63 63 48 44 58 47 64 47 44 38 43 35 34 31 23
58 52 51 54 53 57 59 56 51 49 42 32 26 23 38 30 32 32 14 30 45 58 73 67 53 33 45 47 55 62 62 60 63 65 51 49 35 55 59 50 44 44 38 32 24 30 25
55 55 49 54 52 56 55 51 47 45 38 29 21 11 36 35 37 22 13 34 52 70 72 53 58 56 52 50 45 58 64 61 65 65 62 53 34 41 47 53 45 37 36 33 27 27 22
56 51 51 55 54 56 52 47 48 39 25 17 12 6 4 38 18 5 19 36 48 54 78 58 50 53 53 49 43 43 60 64 56 60 68 64 22 31 53 53 51 46 46 34 20 29 21
53 52 52 55 53 53 55 45 46 30 11 7 10 23 6 33 9 17 29 43 52 51 54 53 47 43 50 50 24 31 48 60 73 64 59 53 42 25 38 44 46 45 47 39 26 18 28
57 53 54 54 50 57 54 38 41 24 6 13 12 7 13 22 19 20 32 41 41 49 51 48 38 51 42 46 39 33 42 30 59 59 76 45 38 45 33 40 44 53 48 45 38 26 28
54 52 53 54 53 53 50 38 37 28 12 9 11 11 7 9 15 18 26 41 42 30 49 36 40 44 44 39 44 32 35 39 49 52 50 43 53 42 47 47 54 50 50 52 49 38 36
50 53 52 51 57 56 41 41 32 26 15 17 13 10 22 32 26 27 20 28 42 37 40 34 34 39 37 44 35 40 46 40 23 40 40 40 41 41 49 53 52 56 53 51 50 46 44
49 53 53 55 54 50 43 38 28 29 23 17 19 22 18 19 23 19 23 21 15 27 31 35 33 36 34 39 43 49 60 54 51 43 45 35 33 43 38 46 46 49 52 51 42 42 44
48 52 55 58 55 52 42 39 32 28 27 33 27 18 9 16 19 7 28 14 32 34 30 34 36 39 39 48 34 61 65 58 51 47 38 25 44 33 30 34 51 26 41 44 41 36 38
49 53 56 60 57 47 45 37 33 32 25 14 25 12 8 11 29 32 18 25 25 29 32 36 43 51 18 27 19 24 28 32 41 40 37 36 33 22 31 31 26 47 40 45 41 36 36
50 55 57 60 59 49 46 40 32 34 23 15 17 25 18 12 10 40 33 30 19 27 33 46 43 43 9 18 4 6 8 12 16 16 33 31 29 25 26 32 41 30 44 31 29 29 31
56 55 57 58 59 52 45 40 34 27 20 15 17 16 16 14 34 27 22 20 24 21 15 36 30 24 25 15 4 6 9 18 15 37 30 28 31 33 26 17 26 39 28 43 33 16 27
58 58 59 61 58 50 42 37 28 24 21 19 24 21 16 14 51 37 30 24 27 26 6 26 19 21 13 17 11 10 9 11 15 30 20 28 30 24 30 25 22 27 37 40 13 18 16
60 61 62 61 57 49 39 33 28 25 23 29 28 30 19 26 45 54 44 35 38 28 10 14 20 19 18 9 14 8 12 6 18 12 21 12 5 18 15 23 7 16 20 26 27 21 18
Wind_Direction_850mb
328 322 321 311 305 296 291 291 292 294 296 301 296 287 281 280 275 272 271 271 272 273 275 277 279 280 277 246 242 252 292 293 272 215 216 219 227 224 236 236 241 252 256 257 272 281 265
324 320 320 321 320 322 316 305 295 289 290 290 293 296 297 295 284 277 271 269 268 268 270 273 275 274 272 254 250 256 255 262 247 225 217 217 234 232 241 245 252 254 258 264 263 254 259
344 335 325 318 314 313 313 314 318 309 301 298 291 287 291 296 297 288 279 273 268 268 266 265 265 267 259 244 235 241 255 231 231 214 218 224 227 243 245 247 255 261 263 266 255 254 257
10 9 5 1 359 350 337 322 315 310 311 309 298 294 286 290 294 294 286 278 272 268 264 263 260 255 254 251 256 239 236 243 236 231 234 234 233 244 255 264 258 254 260 257 259 252 251
358 356 353 350 349 349 347 345 343 336 318 309 308 302 287 283 285 290 293 281 275 268 262 257 252 238 262 267 234 242 229 229 226 218 230 237 237 235 239 249 257 248 252 253 258 247 251
348 346 344 342 341 337 334 332 331 331 334 326 313 308 310 292 287 286 289 294 266 267 258 250 238 227 251 238 235 233 225 224 227 231 237 239 228 238 222 225 234 235 240 238 252 259 260
347 345 342 340 335 334 336 334 329 324 323 324 324 305 302 307 297 289 291 319 263 235 215 209 207 205 226 255 227 223 215 216 221 228 223 224 221 225 224 223 237 244 251 246 253 258 220
345 341 335 328 325 326 326 324 327 325 318 318 317 320 305 299 305 290 277 252 232 331 287 238 242 237 243 253 244 218 206 204 207 220 215 215 221 224 231 226 231 243 252 261 273 283 286
343 342 339 333 328 322 322 321 319 317 318 314 309 310 309 301 307 291 263 251 264 300 275 261 237 237 232 234 236 226 209 206 207 211 214 218 222 222 233 223 229 234 243 254 261 273 270
338 338 337 336 331 330 328 325 321 314 308 307 307 303 307 297 306 306 280 279 253 264 275 252 217 241 225 224 238 222 211 207 213 211 215 226 225 222 225 229 220 232 232 239 254 274 270
337 335 335 333 330 328 326 325 321 319 316 304 302 299 295 268 270 285 351 40 188 210 263 233 213 212 201 197 181 211 211 202 210 210 211 225 219 230 220 221 231 233 239 242 236 247 259
334 333 332 331 327 324 327 326 323 320 316 309 295 289 286 268 271 271 286 305 241 225 235 241 218 185 190 200 215 212 199 214 213 221 223 229 229 227 233 228 220 233 237 247 257 260 249
331 330 329 330 328 324 325 325 324 321 315 307 287 281 268 262 253 267 263 262 210 226 235 248 172 175 195 194 207 226 190 202 205 210 226 217 227 231 232 229 215 224 213 224 225 237 252
333 331 331 332 330 328 326 326 324 322 320 304 285 271 264 252 250 255 261 239 225 231 240 286 205 182 200 208 203 213 186 203 208 208 210 219 219 222 216 229 218 198 208 219 226 223 245
333 330 332 334 332 329 328 326 325 324 324 308 290 275 260 242 230 239 235 226 226 244 267 242 281 283 203 214 210 203 219 201 203 207 214 208 227 208 228 208 218 194 212 215 250 251 284
335 334 332 334 333 332 331 327 325 324 322 311 295 275 259 241 208 218 219 238 252 245 262 289 291 311 305 219 222 194 203 217 209 205 219 235 215 225 208 210 204 219 192 208 232 244 266
343 338 337 337 336 338 335 332 327 324 317 297 285 279 293 216 205 200 218 218 239 255 272 278 273 299 304 301 278 209 209 220 203 207 210 226 243 210 207 204 192 205 222 199 225 225 226
341 340 339 337 338 342 338 336 334 326 320 286 244 253 273 179 177 251 241 243 266 274 281 290 290 280 291 304 309 296 214 215 207 208 200 214 225 238 209 199 197 206 216 192 214 219 253
345 343 338 338 341 338 340 328 336 329 321 297 267 273 249 193 215 233 251 256 259 265 272 267 277 275 283 308 308 286 266 209 217 193 208 202 224 227 224 205 184 212 218 215 210 223 213
348 346 345 343 342 345 342 329 340 332 313 291 292 288 203 208 243 276 269 272 281 284 273 261 277 279 286 282 278 279 292 283 204 217 202 188 220 222 219 197 178 195 216 215 212 216 225
353 352 350 348 346 344 344 340 332 340 305 270 257 269 303 284 275 276 310 274 275 280 291 235 259 272 264 275 285 292 351 338 315 218 190 186 211 218 229 229 193 197 207 221 216 212 222
358 355 353 353 353 349 350 346 338 336 301 247 284 311 320 297 291 276 244 267 267 264 268 294 292 244 258 270 281 312 321 325 294 335 195 188 208 222 211 231 212 205 205 216 224 213 214
357 358 354 354 352 355 352 350 343 339 316 241 260 277 294 291 291 293 265 280 283 303 283 251 265 277 297 289 288 290 310 293 287 288 296 186 192 204 223 217 236 207 202 206 219 224 209
360 359 358 355 351 349 348 351 345 336 329 254 256 305 257 286 300 234 278 234 269 278 292 298 287 279 276 338 309 287 279 279 277 264 259 276 191 196 217 219 227 230 194 212 218 223 221
359 0 356 355 356 359 355 351 350 348 341 264 266 262 289 294 309 306 2 292 282 281 264 277 284 268 278 290 292 313 286 256 252 245 254 262 180 196 212 219 227 215 217 198 208 213 212
359 355 354 355 357 352 350 349 348 347 338 313 290 283 274 291 294 320 316 331 321 308 303 289 274 259 245 272 54 280 297 292 218 219 235 251 177 213 190 221 224 213 208 215 205 224 202
357 354 353 353 354 352 354 349 350 349 344 316 302 302 286 271 285 318 317 305 314 316 288 278 328 221 231 255 127 248 276 292 293 212 208 229 187 211 230 233 207 223 199 187 209 235 201
357 354 351 349 350 349 349 355 355 2 354 340 322 294 279 273 290 287 292 300 284 300 300 312 314 244 225 227 207 192 246 342 303 302 315 243 181 209 221 228 221 221 220 212 151 242 244
351 350 349 350 350 350 343 343 340 344 344 339 329 336 308 270 277 291 286 274 278 259 262 312 335 339 11 292 219 246 248 106 343 312 244 281 56 255 225 213 233 291 241 141 163 228 229